Overview Statistics Trail Chart Weather Telemetry Raw packets
 

This is the latest recevied weather packets stored in our database for station/object KK7MLS-13. If no packets are shown the sender has not sent any weather packets the latest 10 day(s).

<< 40 41 42 43 44 45 46 >>
Time Temp. Humidity Pressure Rain* Wind** Luminosity Snow
1788407160 13.89° C 95% 1009.5 hPa 0 mm - 0 W/m² -
1788406832 13.89° C 94% 1009.3 hPa 0 mm - 0 W/m² -
1788406526 13.89° C 94% 1009.4 hPa 0 mm - 0 W/m² -
1788406222 13.89° C 94% 1009.1 hPa 0 mm - 0 W/m² -
1788405918 13.89° C 94% 1009.1 hPa 0 mm - 0 W/m² -
1788405613 14.44° C 94% 1009.2 hPa 0 mm - 0 W/m² -
1788405313 14.44° C 94% 1009 hPa 0 mm - 0 W/m² -
1788405008 14.44° C 94% 1009.1 hPa 0 mm - 0 W/m² -
1788404703 14.44° C 94% 1009.2 hPa 0 mm - 0 W/m² -
1788404399 14.44° C 94% 1009.1 hPa 0 mm - 0 W/m² -
1788404095 15° C 93% 1008.9 hPa 0 mm - 1 W/m² -
1788403790 15° C 93% 1008.8 hPa 0 mm - 1 W/m² -
1788403489 15° C 93% 1008.7 hPa 0 mm - 1 W/m² -
1788403184 15° C 93% 1008.6 hPa 0 mm - 4 W/m² -
1788402880 15° C 93% 1008.6 hPa 0 mm - 7 W/m² -
1788402575 15° C 93% 1008.7 hPa 0 mm - 7 W/m² -
1788402274 15° C 92% 1008.7 hPa 0 mm - 8 W/m² -
1788401972 15° C 92% 1008.6 hPa 0 mm - 12 W/m² -
1788401668 15.56° C 92% 1008.6 hPa 0 mm - 21 W/m² -
1788401362 15.56° C 92% 1008.7 hPa 0 mm - 31 W/m² -
1788401058 15.56° C 91% 1008.6 hPa 0 mm - 38 W/m² -
1788400752 15.56° C 92% 1008.3 hPa 0 mm - 52 W/m² -
1788400448 15.56° C 92% 1008.5 hPa 0 mm - 60 W/m² -
1788400143 15.56° C 91% 1008.2 hPa 0 mm - 56 W/m² -
1788399837 15.56° C 91% 1008.2 hPa 0 mm - 56 W/m² -

* Rain latest hour (hover to see other rain measurements)
** Current wind speed in m/s (hover to see current wind gust speed)